カタログに戻る

YAOGAN-30 Q

運用中軍事VLEO
NORAD 44451·PAYLOAD·🇨🇳 China

打ち上げ Jul 26, 2019 から Xichang Satellite Launch Center

Loading…

次のパス (今後24時間)

TLE

最新Source: Space-Track

元期: Sep 14, 2026, 22:39 UTC

1 44451U 19045C   26257.94397468  .00002141  00000-0  15785-3 0  9996
2 44451  34.9928 142.2835 0000648 287.3508  72.7130 15.03042952390060

AllMySatでYAOGAN-30 Qをリアルタイム追跡

Download on the App Store